Dubuque, IA

10:25 PM CDT on October 23, 2017 (GMT -0500)
Dubuque Regional

Weather History for KDBQ - November, 2013

Change the Weather History Date:

Thursday, November 21, 2013

  Actual Average Record
Temperature  
Mean Temperature 38 °F 34 °F  
Max Temperature 40 °F 42 °F 69 °F (1913)
Min Temperature 35 °F 26 °F -5 °F (1880)
Degree Days  
Heating Degree Days 27 31  
Month to date heating degree days 575 543  
Since 1 July heating degree days 1206 1192  
Cooling Degree Days 0 0  
Month to date cooling degree days 0 0  
Year to date cooling degree days 640 643  
Moisture  
Dew Point 36 °F    
Average Humidity 93    
Maximum Humidity 100    
Minimum Humidity 85    
Precipitation  
Precipitation 0.01 in 0.08 in 1.36 in (1934)
Month to date precipitation 1.74 1.66  
Year to date precipitation 36.62 33.76  
Snow  
Snow T in 0.10 in - ()
Month to date snowfall 1.4 1.2  
Since 1 July snowfall 1.4 1.2  
Since 1 September snowfall 1.4 1.2  
Snow Depth 0.00 in    
Sea Level Pressure  
Sea Level Pressure 30.18 in    
Wind  
Wind Speed 7 mph (North)    
Max Wind Speed 14 mph    
Max Gust Speed 17 mph    
Visibility 4 miles    
Events Snow    
T = Trace of Precipitation, MM = Missing Value Source: NWS Daily Summary

Daily Weather History Graph

Daily Weather History Graph

Search for Another Location

Airport or City:

Trip Planner

Search our weather history database for the weather conditions in past years. The results will help you decide how hot, cold, wet, or windy it might be!

Date:

Astronomy

Nov. 21, 2013 Rise Set
Actual Time 7:01 AM CST 4:35 PM CST
Civil Twilight 6:30 AM CST 5:06 PM CST
Nautical Twilight 5:56 AM CST 5:40 PM CST
Astronomical Twilight 5:22 AM CST 6:14 PM CST
Moon 8:13 PM CST (11/21) 10:07 AM CST (11/21)
Length of Visible Light 10h 35m
Length of Day
9h 34m
Waning Gibbous, 85% of the Moon is Illuminated
Nov 21
Waning Gibbous
Nov 25
Last Quarter
Dec 2
New
Dec 9
First Quarter
Dec 17
Full

Hourly Weather History & Observations

Time (CST) Temp. Windchill Dew Point Humidity Pressure Visibility Wind Dir Wind Speed Gust Speed Precip Events Conditions
12:22 AM 37.4 °F 30.3 °F 35.6 °F 93% 30.06 in 3.0 mi South 10.4 mph - N/A   Overcast
12:53 AM 37.0 °F 31.6 °F 37.0 °F 100% 30.09 in 4.0 mi South 6.9 mph - N/A   Overcast
1:53 AM 37.0 °F 33.3 °F 36.0 °F 96% 30.10 in 4.0 mi SSE 4.6 mph - N/A   Overcast
2:53 AM 37.0 °F 34.5 °F 37.0 °F 100% 30.10 in 4.0 mi SSE 3.5 mph - N/A   Overcast
3:53 AM 37.0 °F - 37.0 °F 100% 30.09 in 3.0 mi Calm Calm - N/A   Overcast
4:53 AM 37.0 °F - 37.0 °F 100% 30.11 in 3.0 mi Calm Calm - N/A   Overcast
5:50 AM 37.4 °F - 37.4 °F 100% 30.08 in 2.5 mi Calm Calm - 0.00 in Snow Light Snow
5:53 AM 37.0 °F 34.5 °F 36.0 °F 96% 30.12 in 2.5 mi North 3.5 mph - 0.00 in Snow Light Snow
6:10 AM 35.6 °F 32.8 °F 35.6 °F 100% 30.09 in 1.8 mi North 3.5 mph - 0.00 in   Overcast
6:30 AM 37.4 °F 33.8 °F 37.4 °F 100% 30.10 in 1.5 mi North 4.6 mph - 0.00 in   Overcast
6:42 AM 37.4 °F 34.9 °F 37.4 °F 100% 30.11 in 1.8 mi NNE 3.5 mph - 0.00 in   Overcast
6:53 AM 37.0 °F 34.5 °F 37.0 °F 100% 30.14 in 1.8 mi North 3.5 mph - 0.00 in   Overcast
7:53 AM 37.0 °F 33.3 °F 37.0 °F 100% 30.14 in 1.2 mi North 4.6 mph - N/A   Overcast
8:53 AM 37.9 °F 32.1 °F 37.0 °F 97% 30.18 in 1.5 mi North 8.1 mph - N/A   Overcast
9:53 AM 37.9 °F 32.7 °F 37.0 °F 97% 30.20 in 1.5 mi North 6.9 mph - N/A   Overcast
10:00 AM 37.4 °F 31.4 °F 37.4 °F 100% 30.17 in 2.5 mi North 8.1 mph - N/A   Overcast
10:53 AM 37.9 °F 33.5 °F 37.0 °F 97% 30.18 in 2.0 mi North 5.8 mph - N/A   Overcast
11:53 AM 37.9 °F 32.1 °F 37.0 °F 97% 30.17 in 2.5 mi NNE 8.1 mph - N/A   Overcast
12:53 PM 39.0 °F 34.8 °F 37.0 °F 93% 30.18 in 2.5 mi North 5.8 mph - N/A   Overcast
1:53 PM 39.9 °F 35.8 °F 37.0 °F 89% 30.18 in 2.5 mi North 5.8 mph - N/A   Overcast
1:57 PM 39.2 °F 35.0 °F 37.4 °F 93% 30.15 in 4.0 mi North 5.8 mph - N/A   Overcast
2:29 PM 39.2 °F 34.2 °F 37.4 °F 93% 30.15 in 4.0 mi NNE 6.9 mph - N/A   Overcast
2:38 PM 39.2 °F 37.0 °F 37.4 °F 93% 30.15 in 4.0 mi NNE 3.5 mph - N/A   Overcast
2:53 PM 39.9 °F 36.7 °F 37.0 °F 89% 30.18 in 4.0 mi North 4.6 mph - N/A   Overcast
3:53 PM 39.9 °F 34.5 °F 37.0 °F 89% 30.18 in 5.0 mi North 8.1 mph - N/A   Overcast
4:53 PM 39.0 °F 33.4 °F 36.0 °F 89% 30.22 in 7.0 mi North 8.1 mph - N/A   Overcast
5:53 PM 39.0 °F 32.8 °F 36.0 °F 89% 30.23 in 7.0 mi North 9.2 mph - N/A   Overcast
6:53 PM 37.9 °F 30.5 °F 36.0 °F 93% 30.24 in 7.0 mi North 11.5 mph - 0.00 in Snow Light Snow
7:53 PM 37.9 °F 30.5 °F 35.1 °F 89% 30.26 in 8.0 mi North 11.5 mph - 0.00 in Snow Light Snow
8:11 PM 37.4 °F 30.8 °F 35.6 °F 93% 30.24 in 8.0 mi North 9.2 mph - 0.00 in Snow Light Snow
8:20 PM 37.4 °F 31.4 °F 35.6 °F 93% 30.24 in 8.0 mi North 8.1 mph - 0.00 in Snow Light Snow
8:53 PM 37.9 °F 31.5 °F 35.1 °F 89% 30.27 in 7.0 mi North 9.2 mph - 0.00 in Snow Light Snow
9:46 PM 37.4 °F 31.4 °F 35.6 °F 93% 30.25 in 6.0 mi North 8.1 mph - 0.00 in Snow Light Snow
9:53 PM 37.9 °F 31.5 °F 35.1 °F 89% 30.28 in 6.0 mi North 9.2 mph - 0.00 in Snow Light Snow
10:27 PM 37.4 °F 29.8 °F 35.6 °F 93% 30.25 in 5.0 mi NNW 11.5 mph - 0.00 in Snow Light Snow
10:51 PM 37.4 °F 30.8 °F 35.6 °F 93% 30.26 in 5.0 mi NNW 9.2 mph - 0.00 in Snow Light Snow
10:53 PM 37.0 °F 29.3 °F 36.0 °F 96% 30.29 in 5.0 mi NNW 11.5 mph - 0.00 in Snow Light Snow
11:08 PM 35.6 °F 28.6 °F 35.6 °F 100% 30.26 in 4.0 mi NNW 9.2 mph - 0.00 in Snow Light Snow
11:53 PM 36.0 °F 28.0 °F 36.0 °F 100% 30.31 in 4.0 mi NNW 11.5 mph - 0.01 in Snow Light Snow